Temp
66 65 65 64 64 64 63 63 63 62 62 62 62 62 61 61 61 61 61 61 61 61 61 61 61 61 57 51 52 67 67 68 66 62 56 51 51 51 49 53 57 53 57 60 61 56 61
66 64 64 64 64 64 63 63 63 62 62 62 62 61 61 60 60 60 60 60 61 61 60 61 61 60 54 44 66 68 66 65 61 59 55 54 51 55 53 56 55 59 59 60 60 56 55
66 65 64 64 64 63 63 62 62 62 62 62 62 61 60 60 60 60 60 60 60 60 60 60 61 60 53 52 67 67 66 60 58 53 51 56 53 48 51 53 62 62 54 58 53 54 54
66 65 64 64 64 63 63 62 62 62 62 62 61 61 60 60 59 59 60 59 59 60 60 60 61 58 48 65 66 65 66 59 59 55 50 54 55 50 49 56 59 52 53 45 55 54 55
66 65 64 64 63 63 62 62 61 61 61 61 61 60 59 59 59 59 59 59 59 60 60 60 56 55 48 63 59 63 64 57 57 54 52 55 52 47 49 43 45 47 41 45 49 58 56
66 66 64 63 63 63 62 62 61 61 61 60 60 59 59 59 59 58 58 58 59 58 59 62 60 48 52 51 58 60 63 60 53 51 46 45 44 38 43 43 34 40 42 46 46 50 52
66 66 64 63 62 62 62 61 61 61 60 60 59 58 58 58 58 58 56 54 49 48 54 49 49 50 54 58 62 57 60 56 52 45 36 40 35 34 42 49 51 49 48 46 51 55 51
65 65 64 62 62 62 61 61 61 60 60 59 58 58 58 58 58 57 56 49 52 54 45 53 53 53 56 56 48 53 58 47 46 34 36 38 34 42 50 53 53 52 47 45 49 55 53
65 65 64 62 62 62 61 60 60 59 59 59 58 57 57 57 57 55 53 56 60 60 44 48 52 51 51 53 46 46 50 48 40 35 38 36 39 45 47 46 47 50 47 43 44 50 52
64 64 64 62 62 61 60 60 59 59 58 58 57 57 57 56 51 56 53 60 60 59 35 39 45 48 52 52 39 49 52 46 42 36 40 39 44 41 44 45 50 43 54 53 50 44 37
64 64 63 61 61 60 59 59 58 58 58 57 57 57 57 56 52 52 56 60 60 53 23 40 44 58 54 45 42 43 50 47 40 39 39 36 41 42 44 48 53 47 54 52 50 44 44
64 64 62 61 60 59 59 58 58 58 58 57 56 56 56 55 55 58 61 60 54 33 23 34 45 45 45 48 45 45 44 46 47 41 44 41 48 44 43 52 53 53 49 50 48 44 28
63 63 62 60 60 58 58 58 57 57 57 56 55 55 55 61 51 60 59 50 32 29 41 35 36 44 45 42 41 40 40 40 36 31 32 38 38 45 48 45 50 48 43 28 25 23 26
63 62 61 59 59 58 58 57 57 57 56 55 55 56 55 59 59 59 53 40 30 37 35 42 41 43 39 44 42 45 43 39 44 41 34 32 29 40 48 45 42 44 43 30 24 24 29
62 61 60 58 58 58 58 57 57 56 55 54 55 55 55 54 58 56 45 32 33 36 42 40 40 37 38 42 43 44 43 40 42 44 35 33 32 44 47 48 47 42 35 44 35 35 29
61 61 59 58 58 58 57 57 56 56 55 54 53 53 50 56 57 51 39 35 36 46 49 46 36 40 37 40 41 40 42 47 44 47 48 43 30 40 45 48 49 46 48 35 32 23 24
59 60 58 57 58 57 57 56 56 56 55 55 50 46 49 55 54 44 35 40 45 50 51 45 44 43 43 41 43 41 43 45 47 45 47 46 39 36 44 39 39 41 39 42 41 34 26
60 59 58 57 57 57 56 56 56 56 55 52 50 38 50 54 39 41 41 47 47 48 51 49 48 49 46 46 43 44 44 44 49 48 42 46 41 31 36 46 49 47 42 43 29 30 31
60 59 57 56 56 56 56 56 56 55 55 52 47 43 49 49 35 40 46 47 50 47 48 48 48 50 50 46 41 45 45 50 50 47 44 46 38 30 31 39 44 40 45 46 43 35 29
57 58 57 55 55 55 55 55 55 55 56 50 48 36 41 43 46 42 44 44 44 49 50 51 50 51 48 45 47 44 43 48 50 50 50 47 42 35 26 32 39 35 42 44 38 28 32
57 58 56 55 55 55 55 55 55 55 55 49 47 42 45 35 41 45 47 48 45 43 49 51 47 49 47 42 44 43 46 45 48 49 46 45 34 32 37 42 38 37 40 42 34 38 29
57 56 56 54 54 55 55 54 54 54 55 47 44 43 44 45 48 46 44 44 46 45 47 46 46 48 48 44 43 42 46 44 43 46 43 46 32 34 31 43 41 35 40 41 42 43 42
56 56 55 54 54 55 54 54 54 54 53 47 46 48 44 44 43 43 43 46 47 48 47 50 49 47 45 45 47 47 49 50 48 45 43 42 37 31 27 37 38 30 39 41 42 45 44
54 56 55 54 54 55 54 54 54 54 53 50 48 48 43 37 42 43 46 47 46 46 45 49 50 46 46 51 50 48 47 47 47 45 49 41 39 36 26 30 19 39 47 46 43 45 48
55 56 54 53 53 54 54 54 53 54 53 49 47 45 45 40 42 42 44 45 45 44 45 47 48 48 50 46 42 38 38 39 43 44 44 45 39 32 26 26 35 41 42 41 38 40 48
55 55 54 53 53 53 54 53 53 54 53 48 46 46 45 42 38 46 42 43 39 40 41 45 49 49 47 44 41 31 29 36 34 37 43 44 42 33 29 25 24 37 44 47 44 31 47
55 54 53 53 52 53 53 53 52 52 52 49 44 46 44 38 40 42 38 38 41 41 41 44 43 43 46 39 36 32 33 39 32 32 31 33 35 28 29 29 33 44 47 47 28 33 46
55 54 53 52 53 53 53 52 52 52 52 49 43 47 45 39 38 44 45 38 38 39 36 38 39 41 40 37 37 34 34 37 34 38 35 34 32 31 31 26 24 45 43 37 43 46 47
54 53 52 52 53 53 53 52 52 52 52 52 42 50 51 41 39 46 46 46 44 42 39 38 37 37 37 36 37 37 36 36 36 29 41 32 39 34 37 37 46 47 46 49 49 48 48
MSLP
1020.76 1020.64 1020.51 1020.49 1020.43 1020.44 1020.41 1020.11 1019.99 1019.71 1019.50 1019.31 1019.03 1018.73 1018.57 1018.39 1018.18 1017.97 1017.69 1017.42 1017.23 1017.00 1016.79 1016.59 1016.41 1016.36 1016.31 1015.29 1014.32 1013.84 1013.87 1013.58 1013.27 1013.23 1013.74 1014.33 1013.65 1013.11 1012.42 1011.85 1011.50 1011.17 1011.05 1011.87 1011.76 1013.48 1012.62
1020.11 1020.05 1020.03 1020.09 1020.07 1020.05 1020.08 1019.91 1019.82 1019.46 1019.20 1018.99 1018.79 1018.54 1018.37 1018.18 1018.01 1017.79 1017.53 1017.24 1017.11 1016.99 1016.79 1016.59 1016.51 1016.48 1016.16 1014.87 1013.98 1013.87 1013.72 1013.41 1013.55 1013.19 1013.95 1014.08 1013.75 1012.96 1012.56 1011.39 1011.03 1010.67 1011.06 1011.33 1012.07 1013.72 1013.85
1019.34 1019.35 1019.40 1019.47 1019.54 1019.52 1019.67 1019.70 1019.47 1019.36 1018.96 1018.74 1018.51 1018.28 1018.15 1017.95 1017.80 1017.54 1017.28 1017.04 1016.96 1016.91 1016.73 1016.54 1016.35 1016.22 1015.42 1014.49 1013.82 1013.88 1013.49 1013.94 1014.31 1014.42 1014.47 1014.33 1014.25 1014.15 1013.29 1011.37 1010.46 1010.06 1010.86 1010.89 1012.19 1012.94 1013.49
1018.70 1018.45 1018.70 1018.81 1019.00 1019.02 1019.19 1019.30 1019.27 1019.09 1018.85 1018.50 1018.26 1018.01 1017.88 1017.75 1017.64 1017.37 1017.09 1016.92 1016.81 1016.78 1016.68 1016.51 1016.32 1015.99 1014.85 1014.16 1014.00 1013.84 1013.53 1013.90 1014.44 1014.98 1015.22 1014.76 1014.60 1014.47 1013.67 1011.55 1010.17 1010.93 1011.17 1011.56 1011.81 1012.90 1013.34
1017.95 1017.68 1017.64 1018.04 1018.40 1018.66 1018.64 1018.87 1018.91 1018.77 1018.65 1018.25 1018.02 1017.75 1017.59 1017.53 1017.49 1017.26 1016.98 1016.76 1016.56 1016.47 1016.48 1016.33 1016.21 1015.45 1014.40 1014.18 1014.02 1014.02 1013.90 1013.87 1014.40 1014.83 1015.06 1015.28 1014.95 1014.74 1013.50 1012.55 1011.26 1011.07 1010.96 1011.29 1011.51 1012.15 1012.41
1017.17 1017.03 1016.95 1017.23 1017.75 1018.02 1018.21 1018.46 1018.56 1018.46 1018.38 1018.08 1017.85 1017.60 1017.42 1017.35 1017.23 1017.03 1016.86 1016.58 1016.46 1016.41 1016.22 1015.72 1015.53 1015.69 1015.00 1014.17 1014.23 1014.32 1014.05 1014.15 1014.35 1014.77 1015.35 1015.65 1015.33 1015.02 1013.35 1012.04 1010.98 1010.95 1010.97 1011.14 1011.31 1012.28 1013.03
1016.10 1016.33 1016.31 1016.51 1016.99 1017.34 1017.78 1018.01 1018.13 1018.19 1018.14 1017.82 1017.66 1017.47 1017.27 1017.12 1016.98 1016.79 1016.75 1016.59 1016.81 1016.32 1015.60 1015.19 1015.07 1014.87 1014.44 1014.49 1014.22 1014.19 1014.35 1014.20 1014.63 1015.25 1015.54 1015.90 1015.80 1014.49 1012.57 1010.95 1010.54 1010.38 1010.36 1010.65 1010.96 1011.52 1012.37
1015.23 1015.44 1015.40 1015.83 1016.29 1016.67 1017.26 1017.51 1017.71 1017.89 1017.83 1017.55 1017.44 1017.29 1017.06 1016.90 1016.74 1016.59 1016.61 1016.09 1015.72 1015.98 1015.29 1015.23 1015.21 1015.00 1014.94 1014.93 1014.39 1014.50 1014.79 1014.69 1014.71 1015.60 1015.89 1015.61 1014.84 1013.77 1012.42 1011.27 1010.47 1010.00 1010.36 1011.14 1011.36 1011.71 1012.19
1014.20 1014.67 1014.86 1014.97 1015.66 1016.15 1016.63 1017.06 1017.29 1017.52 1017.52 1017.31 1017.24 1017.08 1016.88 1016.70 1016.71 1016.70 1016.22 1015.52 1015.67 1015.66 1015.41 1015.15 1015.21 1014.95 1015.03 1015.21 1014.92 1015.06 1015.55 1015.16 1015.40 1015.63 1015.14 1014.67 1014.29 1013.50 1012.64 1011.65 1011.02 1010.32 1010.18 1011.43 1011.60 1012.45 1012.25
1013.12 1013.77 1014.11 1014.16 1014.95 1015.59 1016.15 1016.59 1016.93 1017.14 1017.18 1017.08 1016.97 1016.94 1016.71 1016.64 1016.97 1016.04 1015.74 1015.68 1015.89 1015.79 1015.71 1015.63 1015.05 1015.14 1015.08 1014.91 1015.75 1016.03 1015.77 1015.81 1015.64 1015.47 1014.99 1014.76 1014.59 1013.58 1012.75 1011.46 1010.14 1010.00 1009.76 1010.52 1011.27 1012.07 1012.40
1012.35 1012.78 1013.39 1013.47 1014.27 1015.05 1015.67 1016.13 1016.51 1016.81 1016.84 1016.77 1016.65 1016.64 1016.48 1016.55 1016.33 1015.84 1015.83 1015.82 1015.92 1016.01 1015.98 1016.05 1015.17 1014.98 1014.64 1014.98 1015.93 1016.04 1016.26 1015.60 1015.29 1015.23 1015.33 1015.45 1014.05 1013.06 1012.56 1011.50 1010.80 1010.69 1009.84 1010.75 1011.68 1012.38 1012.51
1011.31 1012.00 1012.52 1012.63 1013.59 1014.48 1015.09 1015.63 1016.15 1016.46 1016.49 1016.41 1016.37 1016.31 1016.33 1016.53 1016.19 1015.89 1015.81 1015.83 1016.05 1016.29 1015.97 1015.93 1015.45 1014.71 1014.40 1014.36 1015.08 1015.77 1015.88 1016.20 1015.96 1015.54 1015.13 1015.24 1014.73 1013.86 1012.99 1012.02 1011.58 1011.93 1011.51 1011.79 1012.24 1012.95 1013.46
1010.32 1011.16 1011.76 1012.23 1012.92 1013.95 1014.59 1015.07 1015.77 1016.06 1016.23 1016.14 1016.10 1016.05 1016.26 1015.57 1015.94 1015.95 1015.90 1016.02 1016.26 1015.65 1015.71 1015.85 1015.50 1014.68 1014.15 1014.29 1014.80 1015.35 1015.29 1015.25 1015.43 1015.52 1015.35 1015.45 1015.19 1014.56 1014.03 1012.83 1012.00 1011.56 1011.92 1013.14 1014.02 1014.06 1013.17
1009.55 1010.18 1010.87 1011.47 1012.41 1013.35 1014.01 1014.49 1015.38 1015.64 1015.96 1016.02 1015.93 1016.02 1016.07 1015.86 1016.08 1016.03 1015.99 1016.06 1015.69 1015.32 1015.25 1015.44 1015.13 1014.68 1014.17 1014.11 1014.35 1013.58 1014.09 1014.21 1014.43 1014.63 1015.22 1015.62 1016.28 1015.51 1014.56 1013.85 1013.05 1012.53 1012.36 1013.37 1013.81 1014.10 1013.70
1008.63 1009.21 1009.94 1010.55 1011.77 1012.75 1013.45 1013.94 1014.94 1015.33 1015.67 1015.91 1015.95 1015.94 1015.87 1016.55 1016.32 1016.25 1016.07 1015.60 1015.14 1014.82 1014.52 1014.69 1014.74 1013.94 1013.89 1013.84 1013.75 1013.59 1013.43 1013.89 1014.31 1014.42 1014.68 1014.86 1015.78 1015.69 1014.99 1014.59 1014.09 1013.21 1013.04 1013.66 1013.88 1013.42 1013.51
1007.74 1008.30 1009.28 1010.22 1011.17 1012.12 1012.86 1013.46 1014.43 1014.92 1015.38 1015.66 1015.62 1015.53 1016.21 1016.61 1016.53 1016.27 1015.90 1014.97 1014.44 1014.06 1013.58 1013.81 1013.51 1013.32 1012.80 1012.99 1013.01 1012.98 1012.93 1013.33 1013.73 1013.86 1013.88 1013.96 1015.14 1015.80 1015.43 1014.98 1014.16 1013.71 1013.59 1013.98 1014.16 1014.40 1014.00
1007.70 1007.54 1008.54 1009.54 1010.59 1011.56 1012.30 1013.07 1013.95 1014.50 1015.00 1015.42 1015.62 1015.54 1016.77 1016.72 1016.69 1016.14 1015.10 1013.99 1013.61 1013.68 1013.47 1013.21 1012.59 1012.30 1012.25 1012.30 1012.30 1012.46 1012.72 1013.60 1013.72 1013.85 1013.87 1013.60 1014.15 1015.92 1015.60 1015.26 1014.43 1014.31 1014.15 1014.03 1014.24 1014.82 1014.79
1006.21 1007.00 1007.72 1009.00 1009.95 1011.01 1011.82 1012.72 1013.48 1014.10 1014.70 1015.40 1015.01 1015.73 1016.78 1016.78 1016.69 1015.53 1014.03 1013.26 1013.17 1013.25 1013.43 1012.90 1012.54 1011.64 1011.43 1011.70 1011.86 1012.01 1012.29 1013.04 1013.63 1013.64 1013.77 1013.76 1014.32 1015.32 1015.38 1014.94 1014.61 1014.41 1014.31 1014.24 1014.79 1015.40 1015.15
1005.53 1006.29 1007.17 1008.38 1009.42 1010.44 1011.35 1012.27 1013.01 1013.64 1013.91 1014.20 1014.56 1015.81 1016.84 1016.70 1015.84 1014.59 1013.57 1013.21 1012.82 1012.85 1012.83 1012.58 1011.94 1011.80 1011.54 1011.37 1011.67 1011.89 1012.42 1013.20 1013.47 1013.55 1013.74 1013.88 1014.42 1015.24 1015.44 1015.23 1014.71 1014.69 1014.28 1014.32 1014.77 1015.37 1015.37
1006.28 1005.67 1006.58 1007.99 1008.84 1010.05 1010.88 1011.79 1012.50 1013.14 1013.34 1014.10 1014.03 1015.31 1016.52 1016.43 1015.22 1014.13 1012.98 1012.79 1012.84 1012.70 1012.41 1012.31 1011.91 1011.74 1011.45 1011.46 1011.62 1011.93 1012.57 1013.20 1013.45 1013.55 1013.83 1014.13 1014.29 1014.55 1014.87 1014.48 1014.33 1014.52 1014.23 1014.35 1015.02 1015.93 1015.22
1005.09 1005.41 1006.18 1007.40 1008.30 1009.63 1010.54 1011.33 1012.08 1012.72 1013.23 1014.12 1013.39 1013.61 1014.15 1014.79 1014.22 1013.39 1012.53 1012.31 1012.35 1012.59 1012.56 1012.30 1012.02 1011.80 1011.59 1011.61 1011.76 1012.09 1012.82 1013.40 1013.66 1013.79 1013.99 1014.24 1014.45 1014.58 1014.79 1014.53 1014.45 1014.24 1014.14 1014.19 1014.54 1014.47 1014.67
1006.02 1006.35 1005.82 1007.04 1008.08 1009.39 1010.20 1010.96 1011.67 1012.34 1013.10 1013.84 1012.97 1012.94 1013.49 1012.90 1012.78 1012.84 1012.54 1012.23 1012.06 1012.52 1012.49 1012.42 1012.27 1012.12 1012.16 1012.29 1012.64 1012.67 1012.64 1012.76 1012.95 1013.77 1013.92 1014.11 1014.71 1015.03 1015.05 1014.64 1014.61 1014.45 1014.08 1013.87 1013.72 1013.55 1013.59
1004.81 1005.07 1005.67 1006.75 1007.91 1009.07 1009.77 1010.61 1011.22 1011.90 1012.47 1012.85 1012.84 1012.63 1012.75 1012.98 1012.96 1012.68 1012.35 1012.20 1012.20 1012.62 1013.15 1012.83 1012.65 1012.53 1012.88 1013.51 1013.43 1013.38 1013.08 1013.03 1012.96 1013.28 1013.70 1013.97 1014.46 1015.14 1015.24 1015.03 1014.67 1014.10 1012.72 1012.48 1012.56 1012.48 1012.31
1005.33 1005.17 1005.27 1006.31 1007.40 1008.60 1009.50 1010.24 1010.89 1011.44 1011.88 1011.98 1012.26 1012.31 1012.64 1012.98 1012.86 1012.70 1012.58 1012.68 1012.97 1013.32 1013.15 1013.46 1013.45 1013.33 1014.08 1013.97 1013.83 1013.64 1013.31 1013.21 1013.21 1013.42 1013.63 1013.91 1014.51 1015.15 1015.47 1015.32 1014.52 1012.59 1012.06 1011.91 1011.87 1011.62 1011.18
1005.27 1005.20 1005.56 1006.12 1007.38 1008.28 1009.28 1009.89 1010.63 1011.20 1012.00 1012.22 1012.43 1012.55 1012.23 1012.61 1012.92 1013.38 1013.42 1013.35 1013.84 1014.17 1014.01 1013.95 1014.34 1014.62 1014.46 1014.20 1013.92 1013.82 1013.67 1013.61 1013.51 1013.81 1013.93 1014.15 1014.75 1015.39 1015.65 1015.41 1013.93 1012.27 1012.26 1012.07 1011.92 1011.36 1010.56
1005.22 1004.69 1005.57 1006.06 1007.13 1008.24 1009.08 1009.69 1010.44 1011.09 1011.96 1012.42 1012.63 1012.76 1012.59 1013.00 1014.09 1013.65 1014.04 1014.26 1014.39 1014.60 1014.91 1014.83 1014.94 1014.86 1014.82 1014.52 1014.25 1014.05 1013.69 1013.47 1013.94 1014.10 1014.23 1014.87 1015.31 1016.02 1015.77 1015.65 1014.33 1012.94 1012.60 1012.40 1012.34 1011.82 1011.13
1004.16 1004.31 1005.33 1006.04 1006.96 1008.20 1009.03 1009.78 1010.43 1011.25 1011.91 1012.39 1012.92 1013.13 1012.85 1013.85 1015.12 1014.82 1015.02 1015.18 1014.99 1014.89 1015.04 1015.35 1015.51 1015.37 1015.27 1015.14 1014.96 1014.69 1014.14 1014.02 1013.93 1013.95 1014.64 1015.21 1015.49 1015.60 1015.80 1015.46 1014.16 1012.52 1012.45 1012.51 1012.79 1012.59 1011.58
1002.63 1003.89 1004.92 1006.08 1007.03 1008.12 1008.96 1009.78 1010.59 1011.36 1011.85 1012.11 1013.16 1013.08 1012.93 1014.36 1016.04 1015.90 1015.85 1015.95 1015.98 1015.80 1016.01 1016.56 1016.59 1016.31 1016.19 1016.11 1015.93 1015.47 1014.85 1014.58 1014.47 1014.05 1014.09 1014.72 1014.95 1015.00 1014.99 1014.71 1013.93 1012.81 1012.80 1012.82 1012.41 1011.91 1011.80
1003.91 1004.49 1004.77 1006.24 1007.08 1007.96 1008.73 1009.57 1010.50 1011.27 1011.64 1011.88 1012.99 1012.86 1012.60 1014.14 1016.44 1016.73 1016.94 1016.99 1016.99 1017.10 1016.95 1017.13 1017.29 1017.55 1017.77 1017.37 1016.80 1016.23 1015.69 1015.23 1014.97 1014.93 1014.46 1014.64 1014.44 1014.65 1014.16 1013.39 1012.83 1012.49 1012.26 1012.00 1011.81 1011.79 1011.75
Wind_Speed
16 15 14 12 12 13 13 12 11 10 12 13 14 14 11 12 11 13 14 12 8 8 8 8 7 6 7 7 6 4 5 8 11 9 12 14 15 14 13 15 16 17 10 19 13 1 14
18 18 15 14 13 13 13 12 12 11 11 13 15 13 11 11 10 11 13 11 11 8 7 7 6 8 9 12 5 9 7 5 12 4 9 13 5 6 9 13 20 15 17 16 14 8 14
21 20 16 16 14 13 13 13 12 12 11 12 13 14 11 12 10 10 13 12 11 8 7 8 7 8 11 8 5 5 3 10 9 8 7 5 6 4 9 10 16 7 19 11 11 14 8
21 22 19 17 15 13 13 12 13 12 11 12 12 13 11 11 10 10 11 12 10 9 8 8 8 10 7 3 4 7 10 9 5 7 6 8 4 4 6 14 13 9 14 14 17 21 10
20 22 20 16 15 14 12 12 13 12 12 11 11 11 10 10 9 10 10 10 11 7 7 7 7 6 5 3 1 7 6 6 5 4 7 7 5 3 8 8 10 7 11 14 11 10 7
19 21 21 18 17 15 13 12 13 12 12 11 11 9 10 9 10 9 9 6 2 4 7 8 7 5 8 3 5 7 1 3 4 4 6 5 4 2 7 10 11 12 10 13 8 10 11
16 19 18 20 17 14 13 12 12 12 11 11 10 9 9 9 11 8 5 3 3 3 4 4 3 7 4 9 4 0 5 4 4 4 1 5 3 7 16 18 12 12 10 13 11 10 11
15 16 19 19 17 15 13 12 11 11 11 11 9 9 8 10 10 2 2 4 7 4 3 1 3 4 1 3 6 3 11 3 1 3 7 5 2 3 3 11 16 14 16 7 8 4 9
16 17 20 21 18 16 13 12 10 10 11 9 8 8 7 9 2 2 6 1 4 5 4 3 2 4 2 4 7 7 10 3 5 2 1 4 3 3 4 3 12 17 15 13 10 13 6
16 19 19 21 19 16 13 11 9 10 10 8 7 7 7 2 1 3 1 5 1 3 2 4 2 0 3 1 2 2 3 2 3 3 5 6 1 5 7 13 8 9 12 12 14 7 4
18 18 20 21 18 16 14 12 9 9 9 8 7 7 7 6 5 1 3 3 0 2 2 2 3 1 3 1 2 4 2 5 5 2 2 6 8 4 11 6 8 4 8 8 11 9 6
18 16 20 20 20 17 15 12 9 8 7 7 7 6 5 3 4 3 4 1 2 2 3 4 4 4 2 3 5 1 0 2 3 3 6 5 4 6 9 6 6 9 11 4 5 1 1
18 16 22 22 20 19 16 12 10 7 5 6 5 5 6 1 2 3 2 1 1 2 1 3 3 4 5 5 4 3 2 3 3 1 4 5 6 8 5 3 5 2 6 4 3 3 3
19 18 22 23 22 20 17 13 11 7 4 2 7 10 2 5 2 2 2 2 1 4 1 2 1 3 5 4 2 5 5 5 5 4 4 3 1 3 2 4 2 5 5 4 4 4 5
23 19 24 24 24 21 18 15 12 8 6 6 8 4 3 2 1 3 1 1 3 3 4 6 3 1 2 2 0 2 3 5 3 3 2 4 3 4 2 5 5 6 3 1 3 2 6
17 21 24 25 24 22 19 16 13 11 9 12 3 4 4 1 1 3 2 1 1 3 4 7 3 6 5 5 4 2 2 3 2 3 3 2 5 2 3 5 3 3 1 1 3 2 1
22 25 26 26 24 21 20 17 15 13 11 10 3 3 2 1 3 3 2 2 3 5 1 3 2 1 7 4 3 2 5 3 2 1 7 4 4 2 2 2 3 2 0 1 2 3 1
17 28 28 26 24 22 21 18 16 14 12 9 3 3 2 2 2 2 2 4 2 5 4 3 3 2 2 4 6 0 3 5 5 4 2 2 4 3 1 5 3 4 4 4 4 4 1
17 28 28 26 24 22 21 20 18 16 20 4 4 3 2 1 3 4 4 6 2 4 5 4 4 2 3 2 2 4 3 6 6 3 3 3 2 3 1 2 5 5 6 6 2 4 3
13 30 29 28 25 23 21 21 19 18 21 1 4 4 2 2 3 5 6 6 6 1 1 2 1 3 4 3 1 4 5 2 6 1 2 3 2 2 3 1 2 6 7 7 6 3 5
19 28 28 29 28 24 21 21 19 17 16 3 2 5 7 5 6 7 1 9 9 5 4 4 2 5 2 3 4 4 7 4 4 4 2 2 2 3 3 3 3 2 4 8 7 10 6
21 22 30 29 27 24 22 20 18 16 17 2 3 3 2 2 2 9 4 6 9 4 1 4 4 1 4 3 6 2 5 6 5 6 2 3 2 3 4 7 6 6 7 9 10 13 13
36 28 29 29 27 24 22 19 18 20 15 4 1 1 1 4 5 5 7 8 9 7 1 5 3 3 6 4 6 6 5 5 5 4 6 4 3 2 2 2 5 7 14 14 9 8 9
15 18 30 30 27 23 21 19 18 21 16 1 3 2 2 3 4 3 2 7 7 3 3 4 4 5 3 3 5 5 3 2 2 2 4 3 2 1 3 1 3 7 2 4 2 6 11
16 20 28 28 26 23 21 18 16 21 18 1 1 1 2 4 5 4 6 5 6 3 2 2 5 4 4 3 2 3 3 3 4 3 4 1 3 2 1 3 9 7 4 1 2 5 6
25 28 30 29 25 22 19 16 15 19 17 2 1 2 2 5 2 4 6 5 4 5 3 3 2 2 3 3 2 2 4 1 4 5 4 2 2 2 3 1 4 2 3 3 2 4 5
25 30 29 28 26 23 20 19 17 18 17 4 2 2 1 5 4 6 3 1 3 3 3 5 2 1 1 2 2 1 0 2 2 3 4 2 3 5 5 3 7 1 7 1 2 3 2
30 29 29 28 27 24 23 21 19 17 15 3 2 1 1 5 4 6 4 3 2 2 1 2 2 2 1 1 2 3 1 2 3 4 2 6 4 4 4 4 6 3 4 3 2 1 2
11 24 29 27 26 24 24 23 20 18 13 4 3 2 5 6 5 7 9 7 6 5 2 1 3 3 3 1 1 2 2 2 1 3 4 2 3 3 2 1 3 7 7 5 5 3 5
Wind_Direction
270 267 272 273 280 286 292 298 303 315 322 324 322 333 339 330 331 326 329 327 318 322 328 335 337 333 309 248 281 33 327 303 318 217 205 219 229 212 213 206 224 206 196 210 221 153 249
266 263 262 267 267 276 284 290 299 307 310 323 326 331 334 326 321 332 327 320 315 301 313 321 329 324 264 287 346 355 333 1 355 190 204 221 260 252 255 207 218 184 225 201 187 182 257
262 256 249 258 257 264 273 285 289 298 305 317 321 331 328 331 323 332 323 326 320 285 295 305 321 293 289 282 350 331 319 73 58 55 257 223 36 354 331 235 214 217 196 226 141 169 255
267 255 244 248 252 254 265 274 283 292 303 313 318 327 328 330 323 327 321 319 310 288 283 292 301 293 274 70 329 1 337 116 73 79 7 353 353 313 256 307 178 169 190 208 168 162 194
272 269 237 237 246 249 256 268 278 288 299 309 314 320 327 331 324 325 319 311 302 267 263 273 267 244 281 168 7 338 353 2 94 64 55 315 56 292 304 240 177 188 188 193 166 189 169
270 273 243 222 234 240 249 262 275 286 295 308 310 321 327 328 322 318 318 301 320 248 232 240 261 266 308 357 1 314 302 354 61 42 81 332 62 8 259 212 178 174 192 189 174 183 244
264 273 243 217 223 228 241 254 270 281 292 298 309 319 330 327 319 308 299 268 214 220 238 315 311 313 339 352 241 306 359 314 135 62 116 182 141 213 207 208 177 157 182 181 171 155 185
263 275 238 215 216 219 231 245 263 277 285 295 309 319 335 326 320 317 229 239 56 351 267 119 289 259 347 317 281 83 349 332 89 9 312 180 203 230 293 216 200 179 183 229 85 134 179
250 266 239 207 212 214 220 238 255 271 282 298 307 315 330 328 316 242 238 329 21 315 256 116 8 327 1 314 352 6 351 315 82 308 174 63 59 336 139 231 187 197 198 151 156 173 213
242 256 228 205 206 205 213 228 244 262 278 294 298 309 316 343 243 221 250 87 282 324 278 19 158 55 247 226 98 4 302 340 76 347 1 62 309 254 149 213 182 127 150 164 134 136 170
238 243 219 202 197 198 205 217 233 253 273 283 298 299 295 220 313 246 88 126 274 232 7 52 13 9 265 358 130 33 344 312 46 76 314 45 346 48 152 140 90 350 81 119 136 179 117
229 238 215 197 189 191 197 207 224 246 270 292 305 296 166 179 245 71 111 157 225 236 32 358 312 302 169 91 76 357 155 176 24 318 102 53 360 14 350 29 54 224 125 88 61 358 356
222 227 205 193 185 187 191 194 214 229 260 296 303 190 184 151 73 141 143 233 205 7 236 22 19 298 75 54 63 147 155 143 103 64 45 31 3 343 323 339 333 199 128 74 36 22 232
223 222 207 187 181 185 186 183 204 199 229 294 154 157 221 46 82 200 219 211 65 97 72 82 83 52 50 14 85 29 111 73 70 46 91 76 95 339 49 307 334 217 187 149 174 177 199
219 200 184 180 180 181 181 176 192 182 184 178 155 208 149 57 68 287 250 139 129 133 181 152 198 218 116 142 101 161 80 118 201 210 92 133 76 289 44 321 330 256 264 324 343 287 91
224 189 179 180 179 178 178 174 180 178 179 180 201 176 92 91 274 267 247 55 153 189 132 173 282 193 119 127 159 245 130 52 89 338 320 106 96 303 88 287 247 325 202 152 348 81 224
300 182 179 180 176 175 174 175 175 176 183 185 247 147 93 255 252 240 203 133 147 172 269 248 336 134 126 141 117 196 83 120 25 163 306 331 98 99 151 236 233 185 213 288 2 73 298
271 182 177 179 173 173 172 173 172 174 168 160 196 118 86 252 205 259 225 138 343 151 178 253 285 293 177 155 173 266 70 78 155 171 194 51 101 95 188 172 243 273 283 242 120 238 270
204 177 176 174 172 171 170 171 171 173 172 175 139 110 75 299 198 211 132 133 196 164 184 188 210 322 338 227 70 96 83 112 169 168 27 354 133 106 327 231 228 230 228 251 52 49 197
289 178 174 174 168 171 169 171 172 181 198 268 146 130 132 216 276 280 160 153 155 336 281 264 4 250 206 165 214 135 115 150 164 160 50 342 246 213 162 204 202 194 223 228 143 136 209
328 180 174 172 167 171 170 172 175 185 191 222 211 149 172 177 221 228 189 162 153 165 254 253 202 277 255 141 160 121 95 125 174 160 231 256 206 99 300 300 79 301 257 231 197 217 198
252 243 170 170 167 172 169 174 175 180 167 260 173 156 159 61 136 198 172 224 179 117 218 187 245 223 248 360 28 97 153 187 177 163 238 194 307 78 290 213 205 248 245 241 245 240 235
290 187 169 167 165 171 168 174 171 168 170 193 61 41 321 126 186 197 179 179 185 128 111 6 17 245 92 58 12 359 342 347 338 150 212 174 158 132 285 15 307 286 238 225 228 231 226
319 183 168 164 162 166 172 172 172 175 192 335 195 165 202 164 186 170 156 126 151 149 136 114 292 294 56 284 251 273 262 305 250 9 343 227 218 349 261 308 249 238 114 53 331 266 239
263 244 171 160 162 166 172 168 175 185 190 4 78 244 251 117 118 92 141 141 97 137 129 119 63 32 332 273 246 143 187 206 202 82 301 276 329 241 193 227 272 296 104 56 203 291 236
294 176 169 159 158 165 165 160 166 179 178 134 73 341 308 128 75 134 140 164 167 179 127 130 113 324 288 254 248 230 189 184 129 183 214 328 334 39 35 310 279 79 92 33 343 276 69
256 170 164 159 155 162 160 149 150 161 167 139 102 306 297 102 24 353 98 173 10 37 97 107 112 193 290 259 224 272 192 31 208 219 131 116 204 216 256 261 281 147 132 56 350 269 52
164 164 160 160 161 160 156 145 148 151 154 115 102 279 37 83 51 45 28 66 40 336 150 95 132 227 213 238 167 248 324 161 359 276 145 177 198 196 195 231 261 102 69 172 217 0 332
189 171 157 162 161 157 154 153 153 152 146 139 105 278 52 77 100 86 68 40 33 21 0 48 86 55 36 268 17 356 292 104 287 306 30 280 231 285 242 185 170 197 245 248 259 247 273